Wind_Speed
49 50 50 49 49 50 50 50 51 52 52 52 52 52 52 51 50 50 49 47 46 44 42 40 39 37 36 37 38 39 40 40 40 39 38 37 35 34 33 32 32 33
50 51 51 51 51 51 51 51 52 53 53 53 53 53 52 51 50 48 47 44 42 40 39 38 37 36 36 36 37 38 40 41 41 41 40 39 38 37 36 35 35 36
51 51 52 52 53 53 52 52 52 53 53 53 52 51 50 49 48 46 44 42 40 38 37 37 37 37 37 37 38 39 40 41 42 42 42 42 42 41 41 40 39 39
52 53 53 53 54 55 54 53 52 52 51 51 50 49 47 46 45 43 42 40 39 38 38 38 38 39 39 40 41 42 43 44 44 45 46 47 47 46 46 45 43 42
52 53 53 54 55 55 53 52 51 51 50 50 49 48 46 44 43 42 41 40 40 40 40 40 41 42 43 44 45 46 47 48 48 49 50 50 50 49 48 47 45 44
50 50 50 51 51 51 51 51 52 52 52 51 50 48 47 46 44 43 42 42 42 42 42 43 44 45 46 47 48 49 50 51 52 52 52 52 51 50 49 48 47 46
48 47 48 49 51 52 53 54 54 54 52 51 50 49 49 48 47 46 45 45 44 44 45 45 46 48 48 49 50 51 52 52 53 53 52 52 51 50 50 50 49 49
52 51 52 54 56 57 57 57 56 53 51 50 49 49 49 49 49 49 49 48 47 47 47 48 48 49 50 50 51 52 52 52 52 52 52 51 51 51 51 51 52 51
46 50 52 54 56 57 57 56 55 52 51 50 50 50 50 51 51 51 51 50 50 49 49 50 50 50 51 51 51 52 52 52 52 52 52 52 51 52 52 52 53 53
35 38 40 42 43 44 45 46 47 48 49 50 52 52 53 53 53 53 53 52 52 51 51 51 51 51 51 51 51 51 51 50 50 50 50 50 51 52 52 52 53 53
29 30 32 34 35 36 38 40 42 44 46 48 50 51 53 54 55 54 54 53 53 53 53 52 52 52 51 51 50 50 50 50 50 50 50 51 52 53 54 54 55 55
25 24 28 32 36 39 41 44 46 48 49 50 50 50 50 51 52 53 53 53 52 52 51 51 51 51 51 51 51 51 51 52 52 53 54 55 55 56 57 58 58 58
32 31 33 36 39 43 47 50 53 54 53 52 49 47 47 48 49 50 51 51 51 51 51 51 51 52 52 52 52 52 52 53 53 54 55 56 57 59 59 60 60 60
47 45 43 43 42 44 50 54 56 56 54 53 51 50 50 50 51 51 52 52 52 51 52 52 52 53 53 52 52 51 50 51 52 54 56 58 59 60 60 60 60 59
55 51 49 50 47 46 51 53 52 51 50 51 52 52 52 53 53 54 53 52 52 51 51 53 54 55 54 53 52 51 50 51 53 56 59 61 61 61 61 60 59 57
55 54 53 53 53 52 53 53 50 50 51 51 49 49 50 51 51 52 51 49 49 51 52 53 54 55 56 55 55 54 54 55 58 62 66 66 65 64 62 60 58 57
56 58 57 55 54 55 55 55 54 55 55 54 50 48 48 49 48 49 49 49 49 51 52 53 53 54 55 55 56 56 58 62 67 71 72 69 67 65 64 62 62 60
60 61 61 58 56 54 55 55 56 55 53 53 51 48 45 45 46 46 46 47 48 50 52 53 52 53 55 57 60 63 68 72 75 76 74 71 69 67 66 65 65 64
66 66 66 63 59 57 56 57 58 58 55 53 51 49 46 46 48 47 47 49 50 52 54 55 57 60 63 67 70 73 76 77 77 76 75 73 71 70 68 67 67 67
70 70 70 69 66 63 61 61 61 61 59 56 55 55 57 58 57 56 57 57 58 60 62 64 67 69 71 73 75 76 78 77 77 77 76 74 73 72 71 70 69 69
74 75 75 75 73 71 69 67 66 65 64 63 62 62 64 65 65 65 66 66 67 69 70 70 71 72 74 76 78 79 79 78 77 76 75 75 74 73 73 72 72 72
79 80 80 80 79 78 76 74 73 72 71 71 71 70 71 72 74 75 75 74 73 73 74 75 77 79 81 82 82 82 81 79 77 76 76 76 75 74 73 72 73 73
84 84 85 85 84 82 80 78 77 76 75 75 76 77 77 78 80 80 80 79 78 78 80 82 84 85 85 84 83 82 81 80 78 77 77 76 76 75 74 74 74 74
86 86 86 87 86 84 83 81 79 78 78 78 78 79 80 80 81 82 83 83 84 85 85 86 87 87 85 83 82 82 82 81 79 78 78 76 75 75 74 74 74 74
86 85 85 86 85 85 84 83 81 80 80 80 80 80 80 80 81 82 83 85 86 86 86 86 86 86 85 83 82 82 83 83 82 81 78 76 74 72 71 71 69 68
86 85 85 84 84 84 83 82 82 81 80 80 80 80 80 80 80 80 81 83 84 84 84 84 84 84 85 85 84 84 83 83 82 80 78 75 73 70 69 68 67 66
Wind_Direction
265 266 269 271 272 273 275 277 280 283 285 287 288 289 289 290 291 292 293 293 293 293 293 291 290 288 284 280 279 277 275 275 276 277 277 278 281 284 285 285 286 287
266 267 269 271 272 275 278 280 283 285 287 288 289 290 290 291 292 293 293 293 292 291 289 288 286 284 281 278 276 275 274 273 274 275 276 278 281 283 284 284 285 287
267 268 269 271 272 275 279 282 285 286 287 288 288 289 289 290 291 291 290 289 289 287 284 282 281 280 278 276 275 273 273 273 274 275 276 279 282 284 284 285 285 286
268 269 270 271 273 276 279 282 285 286 286 287 287 287 287 288 288 288 287 285 284 282 280 278 277 277 277 276 275 274 274 274 275 276 279 281 284 284 285 285 285 285
270 271 272 273 274 276 279 281 283 284 285 285 286 286 286 285 284 283 282 281 279 278 276 275 274 275 275 275 275 275 275 276 277 279 281 283 284 285 285 285 284 284
272 273 274 274 275 276 278 280 282 284 284 285 285 286 285 283 282 281 280 278 277 275 273 273 273 273 274 274 275 275 276 277 278 280 282 283 284 285 285 284 284 284
273 273 273 274 275 276 278 280 282 283 283 284 285 284 284 283 282 281 280 279 277 276 275 274 274 274 275 275 276 277 278 279 280 281 282 283 284 284 284 284 283 283
271 271 273 275 277 278 279 280 281 281 282 282 283 283 283 282 282 282 281 280 279 279 279 279 279 279 279 280 280 281 281 282 282 283 283 284 284 284 283 283 284 284
272 271 273 275 276 277 278 278 279 280 281 282 282 283 283 282 282 282 281 280 280 281 281 282 282 283 284 284 285 285 285 285 285 285 285 285 285 284 283 284 284 285
281 279 278 279 280 281 280 279 279 279 280 281 282 283 283 283 283 282 281 282 282 282 282 282 283 283 283 284 285 285 285 285 286 286 286 285 285 285 285 285 287 287
286 288 283 281 283 285 284 282 281 281 282 283 283 283 283 282 282 282 282 282 283 283 283 283 283 284 284 284 284 284 285 286 286 287 287 287 287 287 288 289 290 289
268 274 274 276 279 281 281 282 282 282 283 285 285 285 283 280 279 279 280 281 282 282 282 283 283 283 284 284 285 285 286 287 289 290 290 290 290 290 291 292 292 291
253 257 259 267 272 273 275 278 279 279 280 281 282 282 281 280 279 278 279 279 279 279 279 279 280 280 281 282 283 285 287 289 290 291 292 292 292 292 293 294 293 292
252 255 258 261 263 268 271 272 275 278 278 278 278 279 279 278 278 278 278 278 278 278 277 277 278 278 279 280 282 284 287 290 292 293 294 293 294 294 294 294 294 293
251 257 263 261 258 264 270 272 274 276 277 278 278 277 275 275 275 277 278 278 278 278 278 278 277 277 277 278 279 281 284 288 292 295 296 295 295 295 295 295 294 293
253 261 268 264 257 259 267 270 273 274 275 277 278 277 276 275 274 275 275 275 275 278 279 278 277 277 277 277 277 279 282 286 290 295 296 296 295 294 295 294 294 293
257 264 270 270 265 263 263 266 270 273 276 277 280 282 281 275 271 270 270 270 273 277 278 277 276 276 277 277 278 281 283 287 291 294 296 295 294 294 294 293 293 292
261 266 271 273 271 267 263 262 265 269 273 276 280 285 284 274 266 266 267 267 270 273 274 274 274 275 277 279 281 284 286 289 292 294 295 295 295 294 293 293 292 291
265 268 271 272 271 268 264 261 262 264 267 270 273 276 276 270 264 265 267 267 269 272 272 272 274 276 279 282 284 286 288 290 292 293 294 294 294 293 293 292 291 290
267 270 272 273 271 268 265 263 262 261 262 262 263 264 267 267 265 266 269 271 273 275 275 275 276 278 281 283 285 287 288 290 291 291 292 292 292 292 291 290 289 288
268 269 271 271 271 270 268 266 264 261 259 257 256 256 260 263 265 267 270 273 275 278 279 280 280 281 283 284 286 287 288 288 289 289 289 290 290 289 289 288 287 286
267 268 269 270 270 270 269 268 266 264 261 259 257 255 256 258 261 264 266 268 271 274 277 279 280 282 284 285 286 287 287 287 287 287 287 287 287 287 286 286 285 284
264 266 267 268 268 269 269 268 267 266 265 263 261 260 259 259 260 262 263 265 266 268 271 274 277 279 281 283 284 285 285 285 285 285 285 285 285 285 284 283 283 283
264 265 266 267 267 267 268 268 267 267 267 266 265 264 263 263 263 263 264 266 267 269 271 273 275 276 278 279 280 281 282 283 283 283 283 282 282 282 281 281 282 282
263 264 265 266 266 267 266 267 267 267 267 267 267 266 266 266 265 266 267 268 270 271 272 273 275 276 277 277 278 279 280 280 280 280 280 279 278 278 278 278 279 279
263 263 264 265 266 266 266 266 266 266 266 266 267 267 267 267 267 268 269 270 271 272 273 274 275 276 277 277 277 278 278 277 277 277 277 276 276 275 275 276 275 274
Height
10633 10633 10633 10634 10632 10631 10631 10632 10631 10631 10630 10630 10630 10631 10632 10633 10633 10633 10632 10632 10631 10631 10631 10630 10631 10632 10633 10633 10634 10634 10634 10634 10635 10636 10637 10637 10637 10638 10638 10637 10636 10635
10628 10628 10629 10628 10627 10626 10626 10626 10625 10625 10624 10624 10624 10624 10625 10626 10626 10627 10627 10626 10626 10625 10625 10625 10625 10626 10627 10628 10629 10629 10629 10629 10630 10631 10632 10632 10633 10633 10633 10632 10632 10631
10622 10623 10623 10623 10621 10620 10620 10620 10620 10619 10618 10618 10619 10619 10619 10620 10620 10621 10621 10621 10621 10621 10621 10621 10621 10622 10622 10623 10624 10624 10624 10624 10624 10625 10625 10626 10627 10627 10627 10627 10626 10625
10617 10618 10618 10618 10616 10615 10615 10615 10614 10614 10613 10613 10613 10614 10614 10614 10615 10615 10616 10617 10617 10618 10618 10618 10618 10618 10619 10619 10619 10619 10619 10619 10619 10619 10619 10619 10620 10621 10621 10621 10620 10620
10613 10613 10613 10612 10611 10610 10610 10610 10609 10608 10608 10608 10608 10609 10609 10609 10609 10610 10611 10612 10613 10614 10614 10614 10614 10615 10615 10615 10615 10615 10615 10614 10614 10614 10613 10613 10613 10613 10614 10614 10614 10614
10608 10608 10608 10607 10605 10605 10605 10604 10603 10602 10602 10602 10603 10603 10603 10603 10604 10604 10605 10606 10607 10608 10609 10609 10610 10610 10610 10610 10610 10610 10610 10609 10609 10608 10607 10606 10606 10606 10606 10606 10606 10607
10602 10602 10602 10601 10600 10599 10599 10598 10597 10596 10596 10596 10596 10597 10597 10597 10598 10598 10599 10600 10601 10602 10602 10603 10603 10603 10604 10604 10604 10604 10604 10603 10603 10602 10601 10600 10600 10599 10598 10598 10599 10600
10595 10595 10595 10594 10593 10592 10591 10590 10590 10590 10590 10590 10590 10591 10591 10591 10592 10593 10593 10594 10595 10595 10596 10596 10596 10596 10597 10597 10597 10596 10596 10596 10596 10595 10595 10594 10593 10592 10591 10591 10591 10592
10587 10588 10588 10587 10585 10584 10584 10583 10583 10583 10583 10583 10584 10584 10585 10585 10586 10587 10587 10588 10588 10589 10589 10589 10589 10589 10590 10590 10589 10589 10588 10588 10588 10587 10587 10586 10586 10585 10584 10584 10584 10584
10579 10581 10581 10581 10579 10577 10576 10576 10576 10576 10577 10577 10578 10578 10579 10579 10580 10580 10580 10581 10582 10583 10583 10583 10583 10583 10583 10583 10583 10582 10582 10581 10581 10580 10580 10579 10579 10578 10578 10578 10578 10578
10575 10576 10575 10574 10573 10572 10570 10570 10570 10571 10571 10572 10572 10573 10573 10573 10573 10573 10574 10574 10575 10575 10576 10576 10576 10576 10577 10576 10576 10575 10575 10575 10575 10574 10574 10573 10572 10572 10572 10572 10571 10571
10574 10574 10572 10569 10568 10567 10566 10565 10565 10566 10566 10567 10567 10567 10567 10567 10567 10567 10567 10568 10568 10569 10569 10569 10568 10569 10569 10569 10569 10568 10568 10568 10568 10568 10567 10567 10566 10565 10564 10564 10563 10562
10572 10573 10571 10567 10565 10564 10562 10560 10559 10561 10561 10561 10562 10562 10562 10562 10562 10562 10561 10562 10562 10562 10562 10562 10561 10561 10561 10562 10562 10562 10562 10562 10562 10561 10560 10560 10559 10558 10557 10556 10555 10554
10568 10569 10568 10565 10562 10559 10556 10554 10554 10554 10555 10556 10556 10557 10557 10556 10556 10556 10555 10555 10556 10556 10556 10555 10555 10554 10554 10554 10555 10556 10556 10555 10555 10554 10553 10552 10552 10551 10550 10549 10548 10546
10562 10562 10561 10560 10558 10554 10551 10549 10549 10548 10548 10549 10550 10550 10551 10550 10550 10550 10550 10549 10550 10550 10549 10549 10548 10547 10547 10547 10548 10548 10548 10548 10547 10546 10545 10544 10544 10544 10543 10542 10541 10540
10554 10554 10553 10553 10553 10550 10547 10546 10545 10543 10543 10543 10544 10543 10544 10544 10543 10544 10543 10543 10543 10543 10543 10542 10541 10540 10540 10540 10540 10540 10540 10540 10540 10539 10537 10536 10535 10535 10535 10535 10534 10533
10548 10547 10547 10547 10547 10546 10545 10543 10541 10540 10538 10538 10537 10536 10537 10537 10536 10536 10537 10537 10537 10537 10536 10535 10535 10534 10533 10533 10533 10532 10532 10532 10532 10531 10530 10528 10528 10527 10527 10526 10526 10525
10541 10541 10541 10542 10542 10541 10540 10539 10537 10536 10535 10534 10532 10530 10530 10530 10529 10529 10530 10530 10530 10529 10529 10529 10527 10526 10526 10525 10525 10525 10524 10524 10523 10523 10522 10521 10520 10520 10519 10518 10517 10516
10534 10534 10534 10535 10536 10535 10534 10533 10531 10531 10532 10531 10529 10525 10523 10522 10523 10524 10524 10523 10523 10523 10522 10521 10520 10519 10518 10518 10517 10517 10516 10516 10516 10516 10515 10515 10514 10513 10513 10512 10510 10508
10527 10527 10527 10527 10528 10528 10527 10526 10525 10526 10527 10527 10525 10521 10516 10514 10515 10517 10517 10517 10516 10515 10514 10513 10512 10511 10511 10510 10510 10509 10509 10509 10509 10509 10508 10508 10507 10507 10506 10505 10503 10501
10519 10519 10519 10519 10520 10521 10520 10520 10519 10520 10520 10520 10519 10517 10514 10510 10509 10509 10510 10510 10509 10507 10504 10503 10503 10503 10503 10503 10502 10501 10501 10502 10502 10502 10501 10501 10500 10499 10498 10497 10495 10494
10511 10511 10511 10511 10512 10513 10513 10513 10512 10512 10512 10513 10512 10511 10510 10507 10504 10504 10504 10505 10504 10502 10499 10497 10496 10496 10495 10494 10494 10493 10493 10493 10494 10493 10493 10493 10492 10492 10490 10489 10487 10486
10504 10504 10502 10502 10503 10505 10505 10505 10504 10504 10503 10504 10503 10503 10502 10500 10499 10498 10498 10498 10498 10497 10495 10493 10492 10491 10490 10488 10487 10486 10485 10485 10486 10485 10485 10484 10483 10482 10481 10480 10478 10477
10497 10496 10493 10492 10495 10496 10496 10496 10496 10495 10494 10494 10493 10493 10493 10492 10491 10490 10489 10489 10489 10488 10487 10486 10485 10484 10484 10483 10481 10480 10478 10477 10477 10477 10477 10476 10475 10474 10472 10470 10469 10467
10487 10486 10484 10483 10484 10485 10486 10486 10486 10486 10485 10484 10483 10483 10482 10482 10482 10481 10479 10478 10477 10477 10477 10477 10475 10474 10474 10474 10474 10473 10471 10470 10469 10468 10469 10468 10467 10466 10464 10463 10463 10461
10476 10476 10475 10474 10473 10474 10474 10475 10475 10475 10475 10475 10474 10473 10472 10472 10472 10472 10471 10468 10467 10466 10466 10466 10466 10464 10463 10463 10463 10463 10463 10461 10460 10459 10459 10458 10458 10458 10457 10457 10457 10454